| time (UTC) | temp F | wind direction | speed MPH | gust MPH | rain 1hr in | rain 24hr in | rain mn in | humidity % | barometer mb |
| 20260904111610 | 59 | 259 | 1.0 | 3.0 | 0.00 | 0.00 | 0.00 | 100 | 1014.5 |
| 20260904110059 | 59 | 47 | 1.0 | 2.0 | 0.00 | 0.00 | 0.00 | 100 | 1014.3 |
| 20260904104558 | 58 | 49 | 0.0 | 0.0 | 0.00 | 0.00 | 0.00 | 100 | 1014.0 |
| 20260904103057 | 58 | 47 | 0.0 | 0.0 | 0.00 | 0.00 | 0.00 | 100 | 1014.0 |
| 20260904101600 | 58 | 48 | 0.0 | 0.0 | 0.00 | 0.00 | 0.00 | 100 | 1014.0 |
| 20260904094610 | 57 | 48 | 0.0 | 0.0 | 0.00 | 0.00 | 0.00 | 100 | 1013.6 |
| 20260904093101 | 57 | 48 | 0.0 | 0.0 | 0.00 | 0.00 | 0.00 | 100 | 1013.5 |
| 20260904091558 | 57 | 48 | 0.0 | 0.0 | 0.00 | 0.00 | 0.00 | 100 | 1012.9 |
| 20260904091502 | 57 | 48 | 0.0 | 0.0 | 0.00 | 0.00 | 0.00 | 100 | 1012.9 |
| 20260904090057 | 57 | 48 | 0.0 | 0.0 | 0.00 | 0.00 | 0.00 | 100 | 1012.6 |
| 20260904084557 | 57 | 48 | 0.0 | 0.0 | 0.00 | 0.00 | 0.00 | 100 | 1012.3 |
| 20260904083058 | 57 | 48 | 0.0 | 0.0 | 0.00 | 0.00 | 0.00 | 100 | 1012.0 |
| 20260904081636 | 57 | 48 | 0.0 | 0.0 | 0.00 | 0.00 | 0.00 | 100 | 1011.9 |
| 20260904080057 | 57 | 48 | 0.0 | 0.0 | 0.00 | 0.00 | 0.00 | 100 | 1011.8 |
| 20260904074608 | 57 | 48 | 0.0 | 0.0 | 0.00 | 0.00 | 0.00 | 100 | 1011.6 |
| 20260904073105 | 58 | 48 | 0.0 | 0.0 | 0.00 | 0.00 | 0.00 | 100 | 1011.4 |
| 20260904071559 | 58 | 48 | 0.0 | 0.0 | 0.00 | 0.00 | 0.00 | 100 | 1011.3 |
| 20260904070109 | 58 | 48 | 0.0 | 0.0 | 0.00 | 0.00 | 0.00 | 100 | 1011.4 |
| 20260904064557 | 58 | 48 | 0.0 | 0.0 | 0.00 | 0.00 | 0.00 | 100 | 1011.4 |
| 20260904063100 | 58 | 48 | 0.0 | 0.0 | 0.00 | 0.00 | 0.00 | 100 | 1011.4 |
| 20260904061604 | 58 | 48 | 0.0 | 0.0 | 0.00 | 0.00 | 0.00 | 100 | 1011.4 |
| 20260904060057 | 58 | 48 | 0.0 | 0.0 | 0.00 | 0.00 | 0.00 | 100 | 1011.5 |
| 20260904054557 | 58 | 48 | 0.0 | 1.0 | 0.00 | 0.00 | 0.00 | 100 | 1011.6 |
| 20260904053059 | 58 | 48 | 0.0 | 1.0 | 0.00 | 0.00 | 0.00 | 100 | 1011.6 |
| 20260904051557 | 58 | 48 | 0.0 | 0.0 | 0.00 | 0.00 | 0.00 | 100 | 1011.6 |
| 20260904050057 | 58 | 48 | 0.0 | 1.0 | 0.00 | 0.00 | 0.00 | 100 | 1011.6 |
| 20260904044556 | 59 | 48 | 0.0 | 0.0 | 0.00 | 0.00 | 0.00 | 100 | 1011.8 |
| 20260904043109 | 59 | 48 | 0.0 | 0.0 | 0.00 | 0.00 | 0.00 | 100 | 1011.7 |
| 20260904041559 | 59 | 48 | 0.0 | 1.0 | 0.00 | 0.00 | 0.00 | 100 | 1011.8 |
| 20260904040056 | 59 | 48 | 0.0 | 1.0 | 0.00 | 0.00 | 0.00 | 100 | 1011.9 |
| 20260904034558 | 59 | 48 | 0.0 | 1.0 | 0.00 | 0.00 | 0.00 | 100 | 1011.8 |
| 20260904033058 | 60 | 48 | 0.0 | 0.0 | 0.00 | 0.00 | 0.00 | 100 | 1011.8 |
| 20260904031558 | 60 | 48 | 0.0 | 0.0 | 0.00 | 0.00 | 0.00 | 100 | 1011.8 |
| 20260904030058 | 60 | 48 | 0.0 | 0.0 | 0.00 | 0.00 | 0.00 | 100 | 1011.8 |
| 20260904030003 | 60 | 48 | 0.0 | 0.0 | 0.00 | 0.00 | 0.00 | 100 | 1011.9 |
| 20260904024603 | 60 | 48 | 0.0 | 1.0 | 0.00 | 0.00 | 0.00 | 100 | 1011.8 |
| 20260904023058 | 61 | 48 | 0.0 | 0.0 | 0.00 | 0.00 | 0.00 | 100 | 1011.9 |
| 20260904021601 | 61 | 48 | 0.0 | 0.0 | 0.00 | 0.00 | 0.00 | 100 | 1012.1 |
| 20260904020100 | 61 | 48 | 0.0 | 0.0 | 0.00 | 0.00 | 0.00 | 100 | 1012.2 |
| 20260904014642 | 61 | 48 | 0.0 | 1.0 | 0.00 | 0.00 | 0.00 | 100 | 1012.2 |
| 20260904013100 | 62 | 48 | 0.0 | 1.0 | 0.00 | 0.00 | 0.00 | 100 | 1012.3 |
| 20260904011557 | 62 | 48 | 0.0 | 1.0 | 0.00 | 0.00 | 0.00 | 100 | 1012.3 |
| 20260904010057 | 62 | 48 | 0.0 | 1.0 | 0.00 | 0.00 | 0.00 | 100 | 1012.4 |
| 20260904004602 | 62 | 48 | 0.0 | 0.0 | 0.00 | 0.00 | 0.00 | 100 | 1012.5 |
| 20260904003102 | 63 | 48 | 0.0 | 0.0 | 0.00 | 0.00 | 0.00 | 100 | 1012.3 |
| 20260904001557 | 63 | 48 | 0.0 | 2.0 | 0.00 | 0.00 | 0.00 | 100 | 1012.4 |
| 20260904000139 | 63 | 48 | 0.0 | 2.0 | 0.00 | 0.00 | 0.00 | 100 | 1012.3 |
| 20260903234557 | 64 | 48 | 0.0 | 1.0 | 0.00 | 0.00 | 0.00 | 100 | 1012.4 |
| 20260903233057 | 64 | 48 | 0.0 | 1.0 | 0.00 | 0.00 | 0.00 | 100 | 1012.4 |
| 20260903231613 | 64 | 48 | 0.0 | 2.0 | 0.00 | 0.00 | 0.00 | 100 | 1012.4 |
| 20260903230104 | 65 | 48 | 0.0 | 1.0 | 0.00 | 0.00 | 0.00 | 100 | 1012.1 |
| 20260903224558 | 65 | 48 | 0.0 | 1.0 | 0.00 | 0.00 | 0.00 | 100 | 1012.0 |
| 20260903223057 | 66 | 48 | 0.0 | 0.0 | 0.00 | 0.00 | 0.00 | 100 | 1012.0 |
| 20260903221557 | 66 | 48 | 0.0 | 1.0 | 0.00 | 0.00 | 0.00 | 100 | 1011.7 |
| 20260903220110 | 67 | 48 | 0.0 | 1.0 | 0.00 | 0.00 | 0.00 | 100 | 1011.5 |
| 20260903214602 | 68 | 48 | 0.0 | 1.0 | 0.00 | 0.00 | 0.00 | 100 | 1011.5 |
| 20260903213101 | 69 | 48 | 0.0 | 1.0 | 0.00 | 0.00 | 0.00 | 100 | 1011.4 |
| 20260903211557 | 70 | 48 | 0.0 | 3.0 | 0.00 | 0.00 | 0.00 | 100 | 1011.3 |
| 20260903210057 | 71 | 45 | 2.0 | 9.0 | 0.00 | 0.00 | 0.00 | 100 | 1011.3 |
| 20260903204557 | 71 | 63 | 2.0 | 8.0 | 0.00 | 0.00 | 0.00 | 100 | 1011.1 |
| 20260903203057 | 72 | 82 | 5.0 | 9.0 | 0.00 | 0.00 | 0.00 | 100 | 1011.1 |
| 20260903201558 | 73 | 77 | 4.0 | 10.0 | 0.00 | 0.00 | 0.00 | 100 | 1011.0 |
| 20260903200057 | 74 | 55 | 4.0 | 12.0 | 0.00 | 0.00 | 0.00 | 100 | 1011.0 |
| 20260903200002 | 74 | 117 | 5.0 | 12.0 | 0.00 | 0.00 | 0.00 | 100 | 1011.0 |
| 20260903194558 | 75 | 96 | 5.0 | 14.0 | 0.00 | 0.00 | 0.00 | 100 | 1010.9 |
| 20260903193058 | 75 | 70 | 8.0 | 14.0 | 0.00 | 0.00 | 0.00 | 100 | 1011.0 |
| 20260903191558 | 77 | 86 | 7.0 | 12.0 | 0.00 | 0.00 | 0.00 | 100 | 1011.0 |
| 20260903184557 | 78 | 1 | 2.0 | 8.0 | 0.00 | 0.00 | 0.00 | 100 | 1011.0 |
| 20260903183059 | 79 | 15 | 2.0 | 7.0 | 0.00 | 0.00 | 0.00 | 100 | 1011.1 |
| 20260903181558 | 79 | 75 | 4.0 | 8.0 | 0.00 | 0.00 | 0.00 | 100 | 1011.1 |
| 20260903180058 | 78 | 15 | 3.0 | 8.0 | 0.00 | 0.00 | 0.00 | 100 | 1011.3 |
| 20260903174557 | 79 | 360 | 3.0 | 7.0 | 0.00 | 0.00 | 0.00 | 100 | 1011.5 |
| 20260903173057 | 79 | 18 | 2.0 | 6.0 | 0.00 | 0.00 | 0.00 | 100 | 1011.9 |
| 20260903171557 | 78 | 12 | 2.0 | 5.0 | 0.00 | 0.00 | 0.00 | 100 | 1012.2 |
| 20260903170104 | 78 | 30 | 2.0 | 7.0 | 0.00 | 0.00 | 0.00 | 100 | 1012.4 |
| 20260903164559 | 78 | 44 | 3.0 | 6.0 | 0.00 | 0.00 | 0.00 | 100 | 1012.9 |
| 20260903163110 | 77 | 356 | 3.0 | 7.0 | 0.00 | 0.00 | 0.00 | 100 | 1013.2 |
| 20260903161603 | 77 | 357 | 2.0 | 6.0 | 0.00 | 0.00 | 0.00 | 100 | 1013.6 |
| 20260903160104 | 76 | 72 | 3.0 | 6.0 | 0.00 | 0.00 | 0.00 | 100 | 1014.0 |
| 20260903154558 | 75 | 172 | 1.0 | 6.0 | 0.00 | 0.00 | 0.00 | 100 | 1014.2 |
| 20260903153057 | 75 | 101 | 1.0 | 5.0 | 0.00 | 0.00 | 0.00 | 100 | 1014.6 |
| 20260903151559 | 75 | 24 | 1.0 | 9.0 | 0.00 | 0.00 | 0.00 | 100 | 1015.0 |
| 20260903150116 | 74 | 71 | 2.0 | 8.0 | 0.00 | 0.00 | 0.00 | 100 | 1015.3 |
| 20260903144557 | 74 | 46 | 3.0 | 8.0 | 0.00 | 0.00 | 0.00 | 100 | 1015.7 |
| 20260903143101 | 74 | 54 | 4.0 | 11.0 | 0.00 | 0.00 | 0.00 | 100 | 1016.1 |
| 20260903141600 | 74 | 4 | 3.0 | 6.0 | 0.00 | 0.00 | 0.00 | 100 | 1016.3 |
| 20260903140057 | 72 | 25 | 2.0 | 8.0 | 0.00 | 0.00 | 0.00 | 100 | 1016.5 |
| 20260903140000 | 72 | 23 | 1.0 | 8.0 | 0.00 | 0.00 | 0.00 | 100 | 1016.5 |
| 20260903134556 | 72 | 77 | 3.0 | 6.0 | 0.00 | 0.00 | 0.00 | 100 | 1016.6 |
| 20260903133059 | 71 | 42 | 3.0 | 6.0 | 0.00 | 0.00 | 0.00 | 100 | 1016.7 |
| 20260903131557 | 71 | 92 | 4.0 | 6.0 | 0.00 | 0.00 | 0.00 | 100 | 1016.9 |
| 20260903130057 | 70 | 41 | 1.0 | 8.0 | 0.00 | 0.00 | 0.00 | 100 | 1017.1 |
| 20260903124603 | 70 | 53 | 3.0 | 6.0 | 0.00 | 0.00 | 0.00 | 100 | 1017.2 |
| 20260903123057 | 70 | 75 | 1.0 | 5.0 | 0.00 | 0.00 | 0.00 | 100 | 1017.1 |
| 20260903121556 | 69 | 72 | 2.0 | 4.0 | 0.00 | 0.00 | 0.00 | 100 | 1017.1 |
| 20260903120057 | 67 | 86 | 2.0 | 5.0 | 0.00 | 0.00 | 0.00 | 100 | 1017.1 |
| 20260903114616 | 67 | 84 | 1.0 | 4.0 | 0.00 | 0.00 | 0.00 | 100 | 1017.2 |
| 20260903113103 | 67 | 46 | 1.0 | 3.0 | 0.00 | 0.00 | 0.00 | 100 | 1017.2 |